Corpus Christi, TX

2:38 PM CST on February 27, 2017 (GMT -0600)
Corpus Christi International

Weather History for KCRP - April, 2014

Change the Weather History Date:

Wednesday, April 30, 2014

  Actual Average Record
Temperature  
Mean Temperature 74 °F 75 °F  
Max Temperature 81 °F 84 °F 100 °F (1953)
Min Temperature 66 °F 67 °F 45 °F (1996)
Degree Days  
Heating Degree Days 0 0  
Month to date heating degree days 14 15  
Since 1 July heating degree days 1145 898  
Cooling Degree Days 9 10  
Month to date cooling degree days 261 237  
Year to date cooling degree days 422 428  
Growing Degree Days 24 (Base 50)    
Moisture  
Dew Point 38 °F    
Average Humidity 35    
Maximum Humidity 52    
Minimum Humidity 17    
Precipitation  
Precipitation 0.05 in 0.08 in 4.17 in (1977)
Month to date precipitation 0.50 1.84  
Year to date precipitation 3.06 7.20  
Snow  
Snow 0.00 in - - ()
Month to date snowfall 0.0  
Since 1 July snowfall T  
Snow Depth 0.00 in    
Sea Level Pressure  
Sea Level Pressure 30.05 in    
Wind  
Wind Speed 13 mph (NE)    
Max Wind Speed 29 mph    
Max Gust Speed 36 mph    
Visibility 10 miles    
Events Rain , Thunderstorm    
T = Trace of Precipitation, MM = Missing Value Source: NWS Daily Summary

Daily Weather History Graph

Daily Weather History Graph

Search for Another Location

Airport or City:

Trip Planner

Search our weather history database for the weather conditions in past years. The results will help you decide how hot, cold, wet, or windy it might be!

Date:

Astronomy

Apr. 30, 2014 Rise Set
Actual Time 6:51 AM CDT 8:03 PM CDT
Civil Twilight 6:26 AM CDT 8:28 PM CDT
Nautical Twilight 5:57 AM CDT 8:57 PM CDT
Astronomical Twilight 5:27 AM CDT 9:27 PM CDT
Moon 7:56 AM CDT (4/30) 9:39 PM CDT (4/30)
Length of Visible Light 14h 01m
Length of Day
13h 12m
New Moon, 2% of the Moon is Illuminated
Apr 30
New Moon
May 6
First Quarter
May 14
Full
May 21
Last Quarter
May 28
New

Hourly Weather History & Observations

Time (CDT) Temp. Dew Point Humidity Pressure Visibility Wind Dir Wind Speed Gust Speed Precip Events Conditions
12:51 AM 75.0 °F 39.9 °F 28% 29.91 in 10.0 mi NNE 12.7 mph - N/A   Partly Cloudy
1:51 AM 72.0 °F 39.9 °F 31% 29.93 in 10.0 mi NE 12.7 mph - N/A   Partly Cloudy
2:51 AM 71.1 °F 35.1 °F 27% 29.94 in 10.0 mi NNE 23.0 mph 34.5 mph N/A   Partly Cloudy
3:51 AM 69.8 °F 35.6 °F 28% 29.97 in 10.0 mi NNE 20.7 mph - N/A   Partly Cloudy
4:51 AM 68.0 °F 37.0 °F 32% 30.01 in 10.0 mi NE 11.5 mph - N/A   Partly Cloudy
5:51 AM 66.9 °F 37.0 °F 33% 30.03 in 10.0 mi NE 11.5 mph - N/A   Mostly Cloudy
6:51 AM 68.0 °F 37.0 °F 32% 30.07 in 10.0 mi NE 12.7 mph - N/A   Mostly Cloudy
7:51 AM 69.1 °F 37.0 °F 31% 30.08 in 10.0 mi NNE 17.3 mph - N/A   Mostly Cloudy
8:06 AM 68.0 °F 37.0 °F 32% 30.08 in 10.0 mi NNE 12.7 mph - N/A Thunderstorm Mostly Cloudy
8:42 AM 66.9 °F 39.0 °F 36% 30.11 in 10.0 mi North 9.2 mph - 0.00 in Rain , Thunderstorm Light Thunderstorms and Rain
8:51 AM 68.0 °F 39.9 °F 36% 30.10 in 10.0 mi NNE 8.1 mph - 0.00 in Thunderstorm Thunderstorm
9:06 AM 71.1 °F 37.9 °F 30% 30.11 in 10.0 mi NNE 15.0 mph - 0.02 in   Mostly Cloudy
9:51 AM 71.6 °F 35.6 °F 27% 30.11 in 10.0 mi NNE 19.6 mph - N/A   Mostly Cloudy
10:51 AM 75.0 °F 34.0 °F 22% 30.13 in 10.0 mi North 16.1 mph - N/A   Overcast
11:51 AM 75.0 °F 34.0 °F 22% 30.13 in 10.0 mi North 16.1 mph - N/A   Overcast
12:51 PM 78.1 °F 34.0 °F 20% 30.11 in 10.0 mi North 12.7 mph - N/A   Overcast
1:51 PM 79.0 °F 32.0 °F 18% 30.08 in 10.0 mi North 8.1 mph - N/A   Mostly Cloudy
2:51 PM 79.0 °F 30.9 °F 17% 30.07 in 10.0 mi North 9.2 mph - N/A   Mostly Cloudy
3:51 PM 80.1 °F 32.0 °F 17% 30.05 in 10.0 mi NNE 12.7 mph - N/A   Overcast
4:51 PM 81.0 °F 32.0 °F 17% 30.03 in 10.0 mi NE 13.8 mph - N/A   Overcast
5:51 PM 78.8 °F 33.8 °F 20% 30.02 in 10.0 mi ENE 8.1 mph - N/A   Overcast
6:51 PM 77.0 °F 45.0 °F 32% 30.02 in 10.0 mi ESE 11.5 mph - N/A   Mostly Cloudy
7:51 PM 73.9 °F 45.0 °F 35% 30.03 in 10.0 mi ESE 9.2 mph - N/A   Mostly Cloudy
8:51 PM 71.1 °F 48.9 °F 45% 30.05 in 10.0 mi ESE 8.1 mph - N/A   Mostly Cloudy
9:51 PM 66.0 °F 48.0 °F 52% 30.08 in 10.0 mi SSE 6.9 mph - N/A   Mostly Cloudy
10:51 PM 73.0 °F 42.1 °F 33% 30.09 in 10.0 mi NE 12.7 mph - N/A   Mostly Cloudy
11:51 PM 72.0 °F 43.0 °F 35% 30.10 in 10.0 mi ENE 15.0 mph - N/A   Overcast